Temperature
31 30 29 30 31 31 31 31 31 32 33 32 31 32 33 32 31 31 32 31 30 28 27 25 24 23 23 23 22 21 21 20 20 20 20 20 20 20 20 20 19 18 18 17
30 28 30 31 31 31 31 30 31 32 32 32 31 31 32 32 31 30 30 29 27 26 24 23 22 23 23 22 21 21 21 20 21 21 21 21 21 20 20 20 19 19 17 17
30 30 31 31 30 30 30 29 29 30 31 31 31 30 31 32 32 29 27 24 22 20 19 20 22 23 22 22 21 21 21 21 21 21 21 21 20 20 20 19 19 19 18 17
30 31 31 30 30 30 29 30 30 30 29 29 30 29 30 31 28 25 21 18 17 17 16 17 19 21 21 21 21 21 20 21 21 21 21 20 20 20 20 20 20 19 18 18
29 30 30 29 29 30 30 31 30 30 29 28 28 28 29 29 25 22 19 17 15 16 16 17 18 19 19 20 20 20 19 19 20 20 20 20 20 20 20 20 19 19 19 18
30 31 31 31 31 31 31 30 30 30 28 24 21 23 26 26 25 23 20 18 16 16 16 16 16 17 18 18 18 18 17 17 18 18 18 18 18 19 19 19 19 19 18 18
25 29 31 32 30 31 30 29 27 27 23 21 20 22 24 24 24 23 21 19 18 17 17 16 16 16 16 16 16 15 15 16 16 16 16 17 17 17 17 17 18 18 18 18
21 26 30 31 30 29 29 29 27 26 26 26 23 23 23 23 23 22 21 20 19 18 17 16 16 15 15 15 14 14 14 14 15 15 15 15 15 15 15 16 16 17 17 17
26 28 31 32 31 30 29 28 29 28 27 27 27 23 22 22 23 22 21 20 19 18 17 17 16 16 15 15 14 14 14 14 14 14 15 14 15 15 15 15 15 15 15 16
29 28 30 31 32 31 30 29 28 27 26 26 27 24 21 20 22 22 21 20 18 18 18 17 16 16 15 15 14 14 14 14 14 14 14 14 14 14 15 15 15 15 15 15
30 28 29 30 29 29 29 29 28 28 27 25 25 22 22 21 21 21 20 18 17 17 17 16 16 15 15 15 14 14 13 13 13 13 13 14 13 14 14 14 14 15 15 14
29 28 27 28 27 27 29 29 28 26 25 26 25 21 19 19 18 17 17 17 16 16 15 15 15 14 14 13 13 13 12 12 12 12 12 12 12 12 12 12 13 13 13 14
27 26 25 27 26 27 28 29 29 27 26 25 23 18 18 18 18 18 17 16 16 15 15 14 13 13 12 12 12 12 12 11 11 11 11 11 11 11 11 11 11 12 12 12
26 26 26 26 27 28 28 28 28 27 25 24 23 20 20 19 18 18 17 16 16 15 15 14 13 13 13 12 12 12 12 12 12 11 11 11 11 11 11 11 11 11 11 11
28 26 26 27 28 28 27 26 25 24 23 22 22 22 21 19 18 17 17 16 16 16 16 15 14 14 13 13 13 13 12 12 12 12 11 11 11 11 11 11 10 10 10 10
27 26 25 26 28 27 25 24 23 23 22 22 21 21 21 19 18 17 17 17 16 16 16 15 15 14 14 13 13 12 12 12 12 11 11 11 11 11 11 11 10 10 10 10
26 24 24 25 27 27 22 21 21 21 21 21 20 20 19 18 17 17 17 16 17 16 15 14 14 14 13 13 12 12 12 11 11 11 10 10 10 10 11 11 11 11 10 10
25 24 24 25 26 23 20 22 22 21 21 21 20 18 18 17 17 16 16 16 15 14 14 13 13 13 12 12 12 12 11 11 10 10 9 9 9 9 9 10 10 10 10 10
26 24 24 25 25 23 21 21 21 20 20 19 18 18 17 16 16 16 16 15 14 14 13 13 12 12 12 12 11 11 11 10 10 9 9 8 8 8 8 8 9 9 9 10
26 26 25 24 23 22 20 21 21 21 20 18 17 17 16 16 15 15 14 14 13 13 13 12 12 12 11 11 11 10 10 10 9 9 8 7 7 7 7 7 8 8 9 9
24 24 24 23 22 22 21 21 20 18 17 17 17 16 15 15 14 14 14 13 13 13 12 12 12 11 11 11 10 10 9 9 8 8 7 6 6 6 6 7 7 7 8 8
23 23 22 22 21 21 21 20 18 17 17 16 16 15 15 14 14 14 13 13 13 12 12 12 11 11 10 10 9 8 8 7 7 6 6 5 5 5 6 6 6 7 7 8
23 21 21 21 21 21 20 19 18 17 16 16 15 15 14 14 14 14 13 13 12 12 11 11 10 10 9 8 7 6 6 5 5 4 4 4 5 5 5 5 6 6 7 7
22 22 21 20 21 20 19 18 17 16 16 15 15 14 14 14 13 13 13 12 12 11 10 9 8 8 7 6 5 4 4 3 3 3 3 4 4 4 5 5 5 6 6 7
22 22 21 20 20 18 18 17 16 16 15 15 14 14 14 13 13 12 12 11 11 9 8 7 6 5 4 3 3 3 2 2 2 3 3 3 4 4 5 5 5 6 6 6
22 20 19 18 18 17 17 16 16 15 15 14 14 13 13 13 12 12 11 10 9 8 6 5 4 3 3 2 2 2 2 2 2 3 3 4 4 4 4 5 5 5 6 6
Wind_Speed
9 8 8 7 7 10 11 14 14 9 4 1 8 14 13 5 6 11 11 7 11 10 7 7 5 8 8 9 11 8 7 5 4 4 5 4 4 2 3 4 6 3 3 2
3 4 8 8 7 11 11 11 13 11 9 8 10 15 18 12 9 9 10 6 6 7 9 8 2 6 7 9 7 7 7 7 6 5 4 3 3 1 1 2 5 5 4 2
8 3 5 8 9 11 11 9 12 12 11 13 15 19 19 18 10 5 3 11 8 14 12 6 3 5 7 9 7 5 6 7 5 8 5 4 3 3 4 4 5 6 4 2
7 5 5 8 10 11 10 7 9 13 13 13 14 13 11 5 5 13 17 16 16 22 19 17 15 11 10 8 6 7 2 5 4 5 5 6 5 4 3 3 3 4 4 4
6 7 7 7 7 10 12 11 13 16 15 14 14 12 4 9 12 17 18 16 17 19 13 11 13 15 17 17 17 17 14 9 5 3 5 3 3 4 4 3 4 5 5 6
15 6 4 4 8 10 10 12 16 16 11 6 11 14 2 8 11 14 17 17 16 15 11 8 11 13 15 16 16 15 14 16 17 15 12 9 8 8 8 6 5 4 5 6
18 10 6 3 8 10 13 12 10 8 1 4 12 12 2 10 13 15 16 15 14 14 12 12 13 14 15 15 15 14 13 12 13 14 15 14 11 9 9 8 8 7 4 4
5 11 7 5 6 9 11 9 9 14 12 5 13 6 7 11 11 13 14 13 13 12 12 12 12 12 12 12 12 12 10 9 9 9 9 10 11 9 8 10 10 8 4 3
6 8 10 7 4 4 7 11 16 13 14 14 0 8 7 6 7 9 9 9 9 8 8 7 7 7 8 8 8 8 8 8 9 9 9 7 7 7 7 7 8 9 9 8
9 13 14 12 9 5 5 8 8 8 10 14 12 4 4 8 5 5 6 8 9 9 9 8 7 6 7 7 6 6 6 6 7 7 8 9 9 9 9 9 7 6 8 9
15 14 14 12 10 11 7 9 8 8 10 12 15 5 7 8 8 8 9 9 10 11 11 10 10 10 10 10 8 6 6 6 6 6 6 7 7 7 8 9 10 8 6 6
12 11 13 14 11 13 12 8 8 8 9 11 14 5 9 9 8 8 9 10 11 12 13 13 13 12 11 11 11 10 8 8 7 7 7 8 8 8 8 9 9 10 10 8
10 7 11 7 2 6 9 10 10 9 8 11 12 2 1 2 5 8 11 13 14 14 15 15 14 12 11 10 10 11 11 11 10 9 8 9 10 10 9 9 10 10 10 11
3 7 11 15 17 16 14 12 10 9 9 12 14 7 2 4 9 13 14 16 16 17 17 16 14 13 13 12 12 13 13 13 13 12 11 12 13 13 12 10 10 11 11 12
5 10 15 18 19 16 10 11 13 12 11 11 16 19 11 9 12 15 16 17 19 20 19 16 13 11 10 10 9 9 10 10 10 10 11 13 13 13 13 12 11 11 12 14
11 10 15 18 16 4 10 12 12 11 12 14 17 17 11 12 15 18 19 21 23 21 17 11 9 9 9 9 10 10 10 10 9 9 10 11 12 13 14 14 13 12 12 12
11 13 13 12 15 10 6 11 12 12 13 15 20 18 15 16 19 22 23 25 22 19 21 20 17 12 10 10 10 10 9 10 10 10 11 11 12 13 13 14 13 13 12 12
8 11 7 11 12 7 6 6 10 13 16 18 15 16 17 20 20 20 21 20 22 25 24 21 20 17 16 14 14 10 13 11 11 11 12 12 13 14 13 12 12 12 11 10
8 7 7 8 13 5 5 9 14 17 18 12 15 19 22 25 25 22 20 24 24 23 21 19 21 23 17 16 15 14 14 12 13 14 13 14 15 15 15 15 13 12 11 10
12 9 8 10 13 9 8 13 17 17 10 15 22 23 25 26 23 21 24 26 25 22 21 20 22 21 17 13 13 15 17 16 16 15 14 15 15 16 17 16 13 13 11 10
12 10 10 11 13 4 10 17 17 13 14 22 23 24 25 23 23 24 27 25 23 22 20 19 18 18 14 13 13 15 16 17 15 13 14 15 14 16 18 16 13 12 13 13
8 8 9 9 9 6 15 15 13 14 17 21 24 24 24 25 26 26 25 23 23 23 22 22 17 16 12 11 13 16 17 16 13 14 17 17 15 17 18 14 13 11 11 11
5 6 5 6 8 10 14 14 16 18 21 21 23 25 26 27 28 28 25 23 24 23 22 20 19 17 13 12 14 19 18 17 17 18 20 18 18 15 15 16 15 12 10 10
4 3 7 8 10 14 15 16 19 20 21 23 24 26 27 28 29 29 26 24 24 22 22 21 21 21 19 18 18 17 18 18 20 21 19 17 16 16 14 12 11 11 10 9
2 6 9 12 12 14 14 18 20 21 23 24 25 26 26 28 28 28 25 24 24 23 22 22 23 23 23 21 20 20 18 17 18 17 16 15 14 14 13 11 10 10 8 6
4 6 6 8 12 14 18 20 20 22 23 25 26 27 26 26 27 28 26 24 23 23 22 22 21 22 22 21 20 19 17 15 15 15 14 11 10 10 10 9 9 11 11 9
Wind_Direction
261 258 295 338 336 322 311 316 323 325 7 304 275 287 290 238 256 278 265 211 191 182 149 100 114 117 116 112 122 153 180 162 164 156 167 179 167 170 154 148 126 155 242 288
269 344 320 321 310 304 312 315 310 313 328 304 281 277 280 267 223 247 265 242 197 152 109 91 94 112 121 112 118 130 131 157 186 129 104 95 67 296 159 108 154 189 226 250
315 221 258 294 306 311 312 327 327 317 306 290 280 272 264 259 232 197 345 14 35 61 37 62 48 63 110 125 142 151 144 166 185 144 162 148 162 233 222 207 198 192 194 214
309 322 306 309 321 320 311 316 306 299 290 280 279 283 276 266 84 56 51 54 55 55 38 14 19 25 46 60 67 66 83 191 176 176 218 188 190 217 222 197 200 151 179 213
299 298 295 301 311 298 298 308 298 288 281 280 302 291 9 65 70 60 65 65 70 69 60 25 24 31 37 41 44 40 12 354 343 279 289 299 253 249 245 208 188 172 212 213
305 275 264 295 305 306 309 293 280 273 275 303 329 310 32 57 60 73 71 69 69 79 80 52 34 35 35 37 41 45 30 22 14 6 356 343 321 316 315 312 290 226 221 204
331 292 256 279 330 343 331 315 305 311 32 214 214 253 142 76 62 70 74 75 75 74 67 51 39 35 33 33 36 39 34 25 19 16 15 12 359 337 316 303 283 252 243 235
271 285 292 326 345 329 323 317 305 320 319 295 198 217 105 90 80 75 73 68 65 64 62 51 39 32 26 24 24 25 22 18 15 16 11 18 19 12 3 351 337 325 313 309
253 305 321 322 311 302 322 330 329 321 308 309 145 123 114 108 94 80 74 67 59 52 52 47 35 28 19 14 14 5 356 351 354 359 355 358 1 355 351 351 357 354 348 336
323 318 316 311 291 237 267 313 314 316 318 317 319 148 148 171 132 81 54 42 29 17 16 15 9 4 355 347 346 338 326 328 333 348 351 343 340 338 334 330 337 348 350 345
328 315 308 309 330 324 315 319 316 315 316 319 315 43 39 69 47 33 35 20 358 345 343 340 339 339 336 330 325 322 314 311 314 321 322 314 314 321 321 316 316 318 315 325
338 331 319 313 7 342 311 310 314 312 312 308 306 42 30 40 28 7 344 334 329 326 323 319 317 318 320 320 318 314 307 300 294 292 289 286 287 285 284 288 296 305 305 299
343 325 312 319 18 264 289 307 317 323 310 309 316 32 354 342 327 323 321 321 318 313 308 304 300 297 296 294 292 291 291 289 284 274 268 273 274 274 272 275 279 283 291 298
310 296 297 308 315 324 325 333 349 346 335 328 336 347 275 324 341 337 329 320 316 311 305 297 287 277 268 263 263 265 269 268 267 262 258 259 263 267 268 264 265 271 274 277
335 320 326 317 313 322 360 24 21 16 8 336 333 329 356 15 344 327 316 312 310 304 296 285 278 274 272 272 271 274 272 273 272 269 260 257 258 262 265 262 256 258 262 266
345 333 320 311 312 23 65 39 22 12 1 342 327 321 358 349 331 318 317 318 313 310 319 324 311 302 307 316 316 311 303 297 290 287 286 281 271 264 261 258 254 253 255 257
359 344 322 307 310 302 57 26 12 359 347 333 320 325 339 330 320 321 324 316 317 338 335 325 318 314 309 303 293 285 289 294 296 297 300 299 294 288 279 270 255 249 250 253
10 340 308 308 329 357 65 23 358 340 331 334 349 354 339 325 325 323 313 324 337 327 320 317 314 312 306 302 300 295 297 290 291 294 296 296 297 297 297 291 275 257 253 254
14 346 315 336 337 6 95 24 360 334 320 21 354 336 331 329 319 314 329 333 320 314 313 311 308 305 302 298 295 291 289 288 288 289 291 293 289 287 290 290 291 287 271 259
359 329 319 347 334 346 41 6 348 324 300 10 345 334 330 326 320 321 325 319 315 314 310 304 302 299 295 293 293 288 287 285 282 283 289 293 289 284 281 278 281 287 284 272
345 344 356 343 325 55 14 355 347 335 326 333 330 328 324 322 315 312 315 316 314 309 305 303 300 298 296 293 292 288 292 291 286 287 295 294 288 284 280 274 268 270 273 271
352 352 355 335 330 357 0 353 351 327 325 328 326 322 319 316 313 313 314 313 310 310 309 308 305 302 299 299 303 303 304 306 302 299 296 293 286 281 278 274 267 260 262 267
32 38 331 329 315 336 359 348 343 338 329 325 322 320 319 316 316 316 315 313 314 315 314 313 313 310 310 313 316 310 309 309 303 296 291 287 282 275 273 272 269 265 258 257
94 15 312 313 310 341 346 343 338 332 326 324 323 322 322 320 318 316 316 317 318 320 321 323 322 319 317 319 317 309 304 300 294 288 285 282 277 272 267 264 263 263 258 250
347 334 327 311 340 339 331 334 331 326 327 326 326 326 324 321 320 320 320 322 326 327 329 331 326 321 318 316 309 302 297 292 287 285 281 276 271 267 264 259 256 258 250 223
34 9 336 318 330 320 322 329 327 330 330 330 329 327 326 326 324 324 325 329 330 330 332 329 323 319 314 309 304 299 293 286 284 283 278 273 269 266 259 255 260 247 233 210
Height
1481 1484 1484 1477 1472 1471 1468 1465 1462 1453 1446 1454 1460 1458 1453 1453 1460 1460 1456 1456 1458 1461 1464 1466 1467 1465 1472 1480 1484 1488 1493 1495 1497 1500 1501 1503 1505 1507 1509 1509 1507 1507 1508 1508
1481 1489 1481 1475 1472 1471 1468 1471 1467 1458 1453 1457 1461 1459 1452 1450 1453 1456 1455 1456 1457 1458 1460 1464 1464 1463 1477 1483 1486 1489 1493 1496 1496 1497 1499 1500 1503 1505 1506 1506 1505 1505 1505 1505
1482 1481 1476 1474 1474 1475 1473 1475 1473 1470 1461 1458 1461 1462 1452 1446 1447 1453 1456 1461 1462 1465 1472 1470 1470 1472 1482 1485 1486 1489 1494 1496 1496 1496 1497 1498 1501 1502 1503 1503 1502 1502 1502 1502
1478 1475 1475 1476 1476 1475 1478 1469 1470 1469 1472 1471 1463 1473 1454 1447 1452 1460 1467 1471 1469 1467 1480 1474 1477 1483 1486 1486 1487 1489 1492 1495 1495 1495 1496 1496 1497 1499 1500 1500 1500 1500 1499 1499
1481 1475 1476 1478 1477 1473 1472 1466 1467 1467 1470 1474 1473 1477 1463 1452 1464 1475 1481 1483 1478 1478 1484 1488 1489 1488 1486 1484 1485 1485 1489 1493 1495 1495 1495 1495 1495 1496 1497 1497 1496 1496 1496 1495
1478 1473 1472 1472 1469 1465 1464 1465 1464 1463 1471 1500 1505 1503 1483 1468 1473 1478 1484 1485 1484 1484 1488 1494 1494 1490 1487 1485 1484 1484 1487 1489 1490 1490 1490 1491 1491 1492 1492 1493 1493 1492 1492 1491
1496 1477 1468 1467 1470 1467 1469 1475 1484 1485 1503 1512 1503 1502 1488 1479 1479 1482 1487 1489 1490 1490 1493 1494 1493 1491 1489 1488 1487 1486 1487 1488 1488 1488 1487 1486 1486 1487 1489 1489 1489 1488 1488 1488
1524 1499 1473 1466 1471 1476 1472 1475 1489 1496 1491 1481 1491 1494 1489 1485 1487 1489 1491 1495 1496 1496 1497 1497 1496 1495 1494 1492 1490 1489 1489 1489 1488 1487 1486 1484 1483 1482 1482 1483 1483 1483 1484 1484
1497 1487 1467 1463 1465 1470 1475 1475 1468 1477 1475 1476 1475 1486 1489 1488 1490 1492 1494 1497 1499 1499 1498 1498 1497 1496 1495 1494 1492 1490 1490 1489 1487 1485 1484 1483 1482 1481 1480 1479 1478 1477 1477 1477
1479 1485 1471 1463 1461 1463 1468 1469 1473 1481 1491 1491 1476 1485 1494 1495 1492 1493 1496 1499 1501 1501 1500 1499 1497 1496 1495 1494 1492 1491 1489 1486 1485 1483 1481 1480 1479 1477 1476 1476 1475 1473 1472 1471
1476 1483 1477 1468 1471 1472 1470 1470 1471 1475 1480 1493 1493 1501 1491 1495 1496 1496 1499 1502 1504 1503 1501 1500 1498 1496 1495 1493 1491 1489 1487 1484 1482 1479 1477 1476 1474 1472 1471 1470 1469 1468 1467 1466
1481 1484 1487 1479 1474 1475 1470 1470 1473 1486 1488 1484 1488 1507 1503 1503 1505 1506 1505 1505 1505 1503 1501 1499 1496 1494 1491 1490 1488 1486 1484 1482 1479 1476 1473 1471 1468 1466 1465 1463 1462 1460 1459 1459
1490 1495 1500 1488 1487 1478 1472 1467 1467 1473 1481 1487 1498 1517 1508 1506 1507 1507 1507 1505 1504 1501 1498 1495 1492 1489 1486 1484 1482 1481 1479 1477 1474 1472 1469 1466 1463 1461 1458 1456 1454 1452 1450 1449
1492 1494 1499 1501 1488 1474 1472 1470 1470 1477 1486 1492 1493 1502 1500 1501 1504 1505 1505 1503 1500 1497 1493 1489 1486 1483 1481 1479 1476 1474 1472 1470 1467 1465 1462 1460 1458 1455 1453 1450 1448 1446 1443 1441
1490 1494 1491 1484 1474 1471 1477 1480 1482 1487 1495 1499 1498 1497 1494 1501 1504 1503 1501 1497 1494 1490 1485 1482 1479 1478 1476 1474 1471 1469 1467 1465 1462 1459 1456 1453 1451 1449 1446 1443 1441 1439 1437 1436
1492 1496 1494 1489 1476 1477 1487 1492 1493 1494 1498 1500 1500 1499 1497 1500 1501 1499 1496 1492 1488 1483 1478 1476 1475 1473 1471 1468 1466 1464 1461 1459 1456 1453 1450 1448 1445 1442 1439 1437 1435 1433 1432 1431
1499 1504 1502 1495 1478 1477 1500 1507 1504 1504 1503 1503 1502 1498 1497 1499 1500 1496 1492 1489 1483 1479 1477 1475 1471 1468 1465 1462 1459 1456 1453 1450 1448 1445 1442 1440 1438 1435 1432 1430 1427 1426 1425 1425
1502 1504 1502 1491 1486 1504 1516 1506 1505 1506 1503 1500 1500 1502 1502 1500 1497 1494 1490 1483 1480 1478 1474 1470 1466 1462 1458 1454 1451 1448 1445 1442 1439 1436 1434 1432 1430 1427 1424 1422 1420 1418 1418 1417
1498 1502 1503 1497 1500 1501 1509 1507 1508 1508 1504 1505 1505 1503 1501 1498 1494 1489 1486 1483 1479 1474 1469 1464 1460 1455 1450 1446 1443 1439 1435 1433 1430 1427 1425 1423 1421 1418 1415 1413 1411 1410 1410 1410
1498 1498 1498 1502 1510 1511 1516 1510 1509 1506 1500 1505 1505 1503 1500 1495 1488 1483 1481 1478 1473 1468 1463 1457 1451 1446 1441 1437 1433 1429 1426 1423 1420 1417 1415 1412 1410 1408 1405 1403 1401 1401 1402 1402
1509 1504 1507 1511 1512 1509 1513 1510 1510 1514 1514 1508 1505 1501 1498 1493 1489 1482 1475 1470 1465 1459 1454 1448 1442 1437 1432 1428 1423 1418 1415 1412 1409 1406 1403 1401 1399 1397 1395 1392 1391 1392 1393 1394
1513 1514 1517 1516 1518 1519 1512 1513 1516 1518 1512 1508 1504 1499 1494 1489 1482 1476 1469 1463 1456 1450 1444 1439 1433 1427 1423 1418 1413 1408 1405 1402 1399 1395 1392 1389 1387 1386 1385 1383 1382 1383 1384 1385
1513 1522 1522 1521 1523 1517 1517 1517 1517 1515 1511 1506 1501 1496 1490 1483 1476 1469 1462 1455 1449 1443 1436 1431 1425 1418 1413 1409 1404 1398 1394 1391 1386 1383 1380 1377 1375 1374 1374 1374 1373 1374 1375 1377
1516 1519 1520 1519 1517 1517 1518 1517 1516 1513 1509 1504 1499 1493 1486 1478 1471 1463 1455 1448 1442 1436 1430 1423 1416 1409 1403 1398 1392 1387 1381 1377 1373 1369 1366 1364 1364 1363 1364 1364 1365 1366 1367 1369
1518 1517 1519 1519 1517 1519 1517 1517 1514 1509 1505 1500 1495 1490 1483 1474 1466 1459 1451 1444 1437 1431 1424 1417 1409 1400 1392 1386 1379 1374 1369 1364 1360 1357 1355 1354 1353 1353 1354 1355 1356 1358 1360 1362
1516 1520 1523 1523 1521 1520 1517 1514 1511 1506 1501 1496 1490 1483 1477 1471 1462 1455 1448 1441 1434 1426 1417 1408 1399 1391 1383 1375 1369 1363 1359 1355 1352 1349 1347 1346 1345 1345 1346 1347 1349 1350 1353 1356